Change the Weather History Date:

Tuesday, July 16, 2013

  Actual Average (KEAU) Record (KEAU)
Temperature  
Mean Temperature 82 °F 72 °F  
Max Temperature 93 °F 83 °F 102 °F (1936)
Min Temperature 72 °F 61 °F 43 °F (1896)
Degree Days  
Heating Degree Days 0 0  
Month to date heating degree days 2  
Since 1 June heating degree days 64  
Since 1 July heating degree days 2  
Cooling Degree Days 18 7  
Month to date cooling degree days 111  
Year to date cooling degree days 263  
Since 1 June cooling degree days 231  
Growing Degree Days 32 (Base 50)    
Moisture  
Dew Point 68 °F    
Average Humidity 65    
Maximum Humidity 91    
Minimum Humidity 36    
Precipitation  
Precipitation 0.00 in 0.12 in 1.47 in (1900)
Month to date precipitation 1.99  
Year to date precipitation 15.76  
Snow  
Snow 0.00 in 0.00 in 0.00 in ()
Month to date snowfall 0.0  
Since 1 June snowfall 0.0  
Since 1 July snowfall 0.0  
Snow Depth -    
Sea Level Pressure  
Sea Level Pressure 30.22 in    
Wind  
Wind Speed 4 mph (South)    
Max Wind Speed 14 mph    
Max Gust Speed 20 mph    
Visibility 9 miles    
Events      
T = Trace of Precipitation, MM = Missing Value Source: NWS Daily Summary

Daily Weather History Graph

Daily Weather History Graph

Search for Another Location

Airport or City:

Trip Planner

Search our weather history database for the weather conditions in past years. The results will help you decide how hot, cold, wet, or windy it might be!

Date:

Astronomy

Jul. 16, 2013 Rise Set
Actual Time 5:36 AM CDT 8:49 PM CDT
Civil Twilight 5:00 AM CDT 9:25 PM CDT
Nautical Twilight 4:14 AM CDT 10:11 PM CDT
Astronomical Twilight 3:17 AM CDT 11:08 PM CDT
Moon 2:25 PM CDT (7/16) 12:14 AM CDT (7/16)
Length of Visible Light 16h 24m
Length of Day
15h 13m
First Quarter, 56% of the Moon is Illuminated
Jul 16
First Quarter
Jul 22
Full
Jul 29
Last Quarter
Aug 6
New
Aug 14
First Quarter

Hourly Weather History & Observations

Time (CDT) Temp. Heat Index Dew Point Humidity Pressure Visibility Wind Dir Wind Speed Gust Speed Precip Events Conditions
12:15 AM 77.0 °F - 70.0 °F 79% 30.21 in 10.0 mi Calm Calm - N/A   Mostly Cloudy
12:35 AM 76.8 °F - 70.2 °F 80% 30.21 in 10.0 mi ESE 3.5 mph - N/A   Overcast
12:55 AM 76.1 °F - 70.0 °F 81% 30.22 in 10.0 mi SE 5.8 mph - N/A   Overcast
1:15 AM 76.6 °F - 69.4 °F 78% 30.21 in 10.0 mi SE 5.8 mph - N/A   Overcast
1:35 AM 76.3 °F - 69.3 °F 79% 30.22 in 10.0 mi ESE 4.6 mph - N/A   Mostly Cloudy
1:55 AM 75.4 °F - 69.4 °F 82% 30.22 in 10.0 mi ESE 3.5 mph - N/A   Scattered Clouds
2:15 AM 74.5 °F - 69.8 °F 85% 30.22 in 10.0 mi ESE 3.5 mph - N/A   Clear
2:35 AM 74.5 °F - 69.8 °F 85% 30.21 in 7.0 mi Calm Calm - N/A   Scattered Clouds
2:55 AM 74.7 °F - 70.0 °F 85% 30.21 in 7.0 mi Calm Calm - N/A   Mostly Cloudy
3:15 AM 73.6 °F - 69.8 °F 88% 30.21 in 7.0 mi Calm Calm - N/A   Scattered Clouds
3:35 AM 73.9 °F - 70.0 °F 87% 30.21 in 7.0 mi Calm Calm - N/A   Scattered Clouds
3:55 AM 73.8 °F - 70.0 °F 88% 30.21 in 7.0 mi Calm Calm - N/A   Scattered Clouds
4:15 AM 73.4 °F - 70.0 °F 89% 30.21 in 7.0 mi ESE 3.5 mph - N/A   Scattered Clouds
4:35 AM 72.5 °F - 69.6 °F 91% 30.21 in 7.0 mi Calm Calm - N/A   Clear
4:55 AM 72.5 °F - 69.8 °F 91% 30.22 in 7.0 mi East 3.5 mph - N/A   Clear
5:15 AM 72.5 °F - 69.8 °F 91% 30.21 in 7.0 mi East 3.5 mph - N/A   Clear
5:35 AM 72.5 °F - 69.8 °F 91% 30.22 in 7.0 mi East 3.5 mph - N/A   Clear
5:55 AM 72.9 °F - 69.8 °F 90% 30.22 in 7.0 mi ESE 4.6 mph - N/A   Clear
6:15 AM 73.0 °F - 69.8 °F 90% 30.22 in 5.0 mi ESE 3.5 mph - N/A   Clear
6:35 AM 74.1 °F - 70.5 °F 88% 30.22 in 5.0 mi SE 3.5 mph - N/A   Mostly Cloudy
6:55 AM 75.7 °F - 71.1 °F 85% 30.23 in 7.0 mi SE 4.6 mph - N/A   Overcast
7:15 AM 76.1 °F - 70.9 °F 84% 30.23 in 7.0 mi Calm Calm - N/A   Overcast
7:35 AM 76.5 °F - 70.9 °F 83% 30.23 in 10.0 mi SE 3.5 mph - N/A   Overcast
7:55 AM 77.5 °F - 70.9 °F 80% 30.24 in 10.0 mi South 4.6 mph - N/A   Overcast
8:15 AM 79.0 °F - 70.9 °F 76% 30.24 in 10.0 mi SSW 3.5 mph - N/A   Mostly Cloudy
8:35 AM 80.6 °F 84.2 °F 70.7 °F 72% 30.24 in 10.0 mi SSE 4.6 mph - N/A   Scattered Clouds
8:55 AM 81.9 °F 86.0 °F 70.7 °F 69% 30.25 in 10.0 mi SSW 5.8 mph - N/A   Clear
9:15 AM 82.4 °F 86.5 °F 70.3 °F 67% 30.25 in 10.0 mi South 6.9 mph - N/A   Scattered Clouds
9:35 AM 84.0 °F 88.7 °F 70.7 °F 64% 30.24 in 10.0 mi SW 9.2 mph - N/A   Clear
9:55 AM 84.9 °F 90.1 °F 70.9 °F 63% 30.24 in 10.0 mi SSW 8.1 mph - N/A   Clear
10:15 AM 85.8 °F 90.8 °F 70.3 °F 60% 30.24 in 10.0 mi SW 8.1 mph - N/A   Clear
10:55 AM 87.1 °F 91.3 °F 69.1 °F 55% 30.23 in 10.0 mi SSW 9.2 mph - N/A   Scattered Clouds
11:15 AM 88.3 °F 92.8 °F 69.1 °F 53% 30.23 in 10.0 mi South 5.8 mph - N/A   Scattered Clouds
11:35 AM 88.3 °F 92.4 °F 68.7 °F 52% 30.23 in 10.0 mi SSW 6.9 mph - N/A   Scattered Clouds
11:55 AM 89.6 °F 93.9 °F 68.5 °F 50% 30.23 in 10.0 mi SSW 9.2 mph - N/A   Scattered Clouds
12:15 PM 90.0 °F 93.6 °F 67.8 °F 48% 30.23 in 10.0 mi SSW 10.4 mph - N/A   Scattered Clouds
12:35 PM 90.0 °F 93.6 °F 67.6 °F 48% 30.23 in 10.0 mi SW 8.1 mph - N/A   Clear
12:55 PM 90.7 °F 94.5 °F 67.6 °F 47% 30.22 in 10.0 mi SSW 10.4 mph - N/A   Scattered Clouds
1:15 PM 91.0 °F 94.7 °F 67.6 °F 46% 30.22 in 10.0 mi SSW 8.1 mph - N/A   Scattered Clouds
1:35 PM 91.6 °F 94.8 °F 66.9 °F 44% 30.22 in 10.0 mi SSW 11.5 mph - N/A   Mostly Cloudy
1:55 PM 91.9 °F 95.4 °F 66.9 °F 44% 30.22 in 10.0 mi SSW 8.1 mph - N/A   Scattered Clouds
2:15 PM 91.8 °F 95.1 °F 66.7 °F 44% 30.21 in 10.0 mi South 11.5 mph 16.1 mph N/A   Scattered Clouds
2:35 PM 92.8 °F 96.1 °F 66.6 °F 42% 30.21 in 10.0 mi SSW 12.7 mph 16.1 mph N/A   Scattered Clouds
3:55 PM 92.8 °F 95.2 °F 64.9 °F 40% 30.20 in 10.0 mi SW 12.7 mph 17.3 mph N/A   Scattered Clouds
4:15 PM 93.2 °F 94.1 °F 62.8 °F 36% 30.20 in 10.0 mi SW 12.7 mph 19.6 mph N/A   Clear
4:35 PM 92.1 °F 93.2 °F 63.1 °F 38% 30.20 in 10.0 mi SSW 12.7 mph - N/A   Scattered Clouds
4:55 PM 92.7 °F 94.0 °F 63.5 °F 38% 30.20 in 10.0 mi SW 13.8 mph - N/A   Scattered Clouds
5:15 PM 92.7 °F 94.0 °F 63.3 °F 38% 30.20 in 10.0 mi SW 11.5 mph 17.3 mph N/A   Clear
5:35 PM 92.1 °F 92.8 °F 62.4 °F 37% 30.20 in 10.0 mi WSW 13.8 mph - N/A   Clear
5:55 PM 91.9 °F 92.9 °F 63.3 °F 38% 30.20 in 10.0 mi WSW 11.5 mph - N/A   Clear
6:15 PM 91.2 °F 92.5 °F 63.9 °F 40% 30.20 in 10.0 mi WSW 10.4 mph - N/A   Clear
6:35 PM 90.7 °F 92.1 °F 63.9 °F 41% 30.19 in 10.0 mi WSW 9.2 mph - N/A   Clear
6:55 PM 90.1 °F 92.0 °F 64.6 °F 43% 30.19 in 10.0 mi WSW 9.2 mph - N/A   Clear
7:55 PM 88.2 °F 90.6 °F 66.2 °F 48% 30.20 in 10.0 mi SSW 5.8 mph - N/A   Clear
8:15 PM 86.4 °F 89.0 °F 67.1 °F 52% 30.20 in 10.0 mi South 4.6 mph - N/A   Clear
8:35 PM 85.3 °F 88.2 °F 67.3 °F 55% 30.20 in 10.0 mi SSW 4.6 mph - N/A   Clear
8:55 PM 83.3 °F 86.2 °F 67.8 °F 59% 30.20 in 10.0 mi South 5.8 mph - N/A   Clear
9:15 PM 83.3 °F 85.9 °F 67.1 °F 58% 30.20 in 10.0 mi South 4.6 mph - N/A   Clear
9:35 PM 82.9 °F 85.6 °F 67.1 °F 59% 30.21 in 10.0 mi SSW 3.5 mph - N/A   Clear
9:55 PM 83.3 °F 85.9 °F 67.1 °F 58% 30.22 in 10.0 mi Calm Calm - N/A   Clear
10:15 PM 81.0 °F 83.6 °F 67.8 °F 64% 30.23 in 10.0 mi Calm Calm - N/A   Clear
10:35 PM 80.1 °F 83.0 °F 69.6 °F 70% 30.23 in 10.0 mi Calm Calm - N/A   Clear
10:55 PM 78.4 °F - 70.0 °F 75% 30.23 in 10.0 mi Calm Calm - N/A   Clear
11:15 PM 78.8 °F - 70.5 °F 76% 30.23 in 10.0 mi Calm Calm - N/A   Clear
11:35 PM 77.2 °F - 70.5 °F 80% 30.23 in 10.0 mi Calm Calm - N/A   Clear
11:55 PM 76.5 °F - 70.5 °F 82% 30.24 in 10.0 mi Calm Calm - N/A   Clear